QPF
0.00 0.00 0.00 0.00 0.00 0.00 0.00 0.00 0.00 0.00 0.02 0.01 0.00 0.00 0.00 0.00 0.00 0.00 0.00 0.00 0.03 0.04 0.03 0.02 0.01 0.02 0.01 0.01 0.01 0.00 0.00 0.00 0.00 0.00 0.01 0.00 0.00 0.00 0.00 0.00 0.00 0.00 0.00
0.00 0.00 0.00 0.00 0.00 0.00 0.01 0.00 0.00 0.00 0.00 0.02 0.00 0.00 0.00 0.00 0.00 0.00 0.00 0.03 0.03 0.05 0.03 0.04 0.03 0.01 0.00 0.00 0.00 0.00 0.00 0.00 0.00 0.00 0.00 0.00 0.00 0.00 0.00 0.00 0.00 0.00 0.00
0.00 0.00 0.00 0.00 0.00 0.00 0.01 0.00 0.00 0.00 0.00 0.02 0.02 0.02 0.01 0.01 0.00 0.01 0.05 0.13 0.07 0.05 0.03 0.06 0.07 0.01 0.00 0.00 0.00 0.00 0.00 0.00 0.00 0.00 0.00 0.00 0.00 0.00 0.00 0.00 0.00 0.00 0.00
0.00 0.00 0.00 0.00 0.00 0.00 0.00 0.01 0.01 0.01 0.00 0.02 0.04 0.04 0.03 0.01 0.01 0.01 0.05 0.08 0.05 0.05 0.03 0.04 0.02 0.00 0.00 0.00 0.00 0.00 0.00 0.00 0.00 0.00 0.00 0.00 0.00 0.00 0.00 0.00 0.00 0.00 0.00
0.00 0.00 0.01 0.00 0.00 0.00 0.00 0.00 0.00 0.00 0.00 0.01 0.02 0.03 0.04 0.03 0.02 0.03 0.11 0.18 0.04 0.04 0.03 0.01 0.00 0.01 0.00 0.00 0.00 0.00 0.00 0.00 0.00 0.00 0.00 0.00 0.00 0.00 0.00 0.00 0.00 0.00 0.00
0.00 0.01 0.01 0.00 0.00 0.00 0.00 0.00 0.00 0.00 0.00 0.01 0.02 0.04 0.06 0.05 0.02 0.03 0.06 0.13 0.02 0.01 0.01 0.00 0.01 0.01 0.01 0.01 0.00 0.00 0.00 0.00 0.00 0.00 0.00 0.00 0.00 0.00 0.00 0.00 0.00 0.00 0.00
0.00 0.02 0.01 0.00 0.00 0.00 0.00 0.00 0.01 0.02 0.03 0.03 0.02 0.03 0.07 0.05 0.03 0.01 0.04 0.01 0.00 0.00 0.00 0.00 0.01 0.01 0.01 0.01 0.00 0.00 0.00 0.00 0.00 0.00 0.01 0.01 0.00 0.00 0.00 0.00 0.00 0.00 0.00
0.01 0.03 0.01 0.00 0.00 0.00 0.00 0.00 0.01 0.04 0.04 0.02 0.01 0.02 0.05 0.04 0.04 0.05 0.03 0.00 0.00 0.00 0.01 0.02 0.01 0.00 0.00 0.00 0.00 0.00 0.00 0.00 0.00 0.02 0.06 0.05 0.01 0.00 0.00 0.00 0.00 0.01 0.01
0.01 0.02 0.01 0.01 0.00 0.00 0.00 0.00 0.01 0.03 0.02 0.03 0.01 0.03 0.19 0.33 0.20 0.12 0.12 0.09 0.01 0.02 0.02 0.01 0.01 0.01 0.00 0.00 0.00 0.00 0.00 0.00 0.01 0.03 0.04 0.05 0.01 0.00 0.00 0.00 0.00 0.00 0.01
0.02 0.02 0.01 0.01 0.00 0.01 0.01 0.03 0.02 0.01 0.00 0.01 0.00 0.01 0.01 0.00 0.00 0.01 0.06 0.16 0.03 0.01 0.00 0.00 0.01 0.01 0.00 0.00 0.00 0.01 0.01 0.00 0.01 0.03 0.05 0.08 0.05 0.01 0.02 0.00 0.00 0.00 0.00
0.03 0.06 0.03 0.01 0.00 0.02 0.04 0.05 0.04 0.04 0.01 0.01 0.01 0.04 0.03 0.01 0.02 0.02 0.04 0.06 0.03 0.01 0.01 0.01 0.01 0.01 0.02 0.01 0.00 0.00 0.00 0.00 0.00 0.00 0.06 0.17 0.08 0.02 0.01 0.03 0.03 0.01 0.00
0.02 0.05 0.07 0.01 0.01 0.02 0.03 0.03 0.07 0.03 0.04 0.02 0.05 0.04 0.03 0.01 0.01 0.01 0.14 0.11 0.03 0.01 0.00 0.00 0.00 0.00 0.00 0.00 0.00 0.00 0.00 0.00 0.00 0.00 0.01 0.09 0.14 0.02 0.01 0.02 0.02 0.01 0.02
0.01 0.03 0.04 0.01 0.01 0.00 0.01 0.02 0.05 0.06 0.02 0.01 0.01 0.05 0.10 0.02 0.01 0.09 0.13 0.06 0.03 0.00 0.00 0.00 0.00 0.00 0.00 0.00 0.00 0.00 0.00 0.00 0.00 0.00 0.00 0.02 0.12 0.11 0.01 0.02 0.02 0.01 0.01
0.02 0.02 0.07 0.02 0.01 0.00 0.01 0.01 0.02 0.01 0.00 0.00 0.03 0.08 0.08 0.05 0.02 0.03 0.01 0.00 0.00 0.00 0.00 0.00 0.00 0.00 0.00 0.00 0.00 0.00 0.00 0.00 0.00 0.00 0.01 0.01 0.13 0.17 0.16 0.06 0.05 0.04 0.03
0.01 0.03 0.08 0.02 0.00 0.00 0.00 0.00 0.01 0.00 0.00 0.06 0.04 0.07 0.07 0.03 0.00 0.00 0.02 0.00 0.00 0.00 0.00 0.00 0.00 0.00 0.00 0.00 0.00 0.00 0.00 0.00 0.00 0.00 0.02 0.03 0.03 0.06 0.18 0.35 0.25 0.12 0.05
0.02 0.01 0.04 0.02 0.00 0.00 0.00 0.00 0.00 0.00 0.00 0.03 0.02 0.03 0.01 0.01 0.00 0.00 0.00 0.00 0.00 0.00 0.00 0.00 0.00 0.00 0.00 0.00 0.00 0.00 0.00 0.00 0.00 0.00 0.01 0.07 0.09 0.06 0.06 0.30 0.23 0.19 0.13
0.01 0.02 0.04 0.05 0.00 0.00 0.00 0.00 0.00 0.00 0.00 0.02 0.03 0.00 0.00 0.01 0.00 0.00 0.00 0.00 0.00 0.00 0.00 0.00 0.00 0.00 0.00 0.00 0.00 0.00 0.00 0.00 0.00 0.00 0.00 0.00 0.03 0.02 0.01 0.23 0.30 0.16 0.09
0.02 0.04 0.08 0.04 0.01 0.00 0.00 0.00 0.00 0.00 0.00 0.04 0.02 0.00 0.00 0.00 0.00 0.00 0.00 0.00 0.00 0.00 0.00 0.00 0.00 0.00 0.00 0.00 0.00 0.00 0.00 0.00 0.00 0.00 0.00 0.00 0.00 0.00 0.09 0.49 0.31 0.26 0.18
0.03 0.04 0.06 0.03 0.04 0.00 0.00 0.00 0.01 0.00 0.00 0.00 0.01 0.00 0.00 0.00 0.00 0.00 0.00 0.00 0.00 0.00 0.00 0.00 0.00 0.00 0.00 0.00 0.00 0.00 0.00 0.00 0.00 0.00 0.00 0.00 0.00 0.00 0.02 0.24 0.61 0.42 0.27
0.10 0.08 0.04 0.03 0.19 0.07 0.01 0.04 0.10 0.05 0.01 0.03 0.01 0.01 0.01 0.00 0.00 0.00 0.00 0.00 0.00 0.00 0.00 0.00 0.00 0.00 0.00 0.00 0.00 0.00 0.00 0.00 0.00 0.00 0.00 0.00 0.00 0.01 0.01 0.04 0.05 0.10 0.19
0.10 0.10 0.10 0.07 0.12 0.15 0.03 0.02 0.04 0.02 0.02 0.01 0.00 0.00 0.01 0.00 0.00 0.00 0.00 0.00 0.00 0.00 0.00 0.00 0.00 0.00 0.00 0.00 0.00 0.00 0.00 0.00 0.00 0.00 0.00 0.00 0.00 0.00 0.00 0.00 0.01 0.03 0.05
0.05 0.08 0.10 0.08 0.07 0.14 0.07 0.05 0.09 0.05 0.03 0.05 0.00 0.00 0.00 0.00 0.00 0.00 0.00 0.00 0.00 0.00 0.00 0.00 0.00 0.00 0.00 0.00 0.00 0.00 0.00 0.00 0.00 0.00 0.00 0.00 0.00 0.00 0.00 0.00 0.00 0.00 0.00
0.05 0.06 0.09 0.07 0.05 0.13 0.15 0.05 0.05 0.06 0.04 0.03 0.00 0.00 0.00 0.00 0.00 0.00 0.00 0.00 0.00 0.00 0.00 0.00 0.00 0.00 0.00 0.00 0.00 0.00 0.00 0.00 0.00 0.00 0.00 0.00 0.00 0.00 0.00 0.00 0.00 0.00 0.00
0.03 0.02 0.05 0.05 0.12 0.16 0.10 0.03 0.04 0.04 0.02 0.01 0.05 0.01 0.00 0.00 0.00 0.00 0.00 0.00 0.00 0.00 0.00 0.00 0.00 0.00 0.00 0.00 0.00 0.00 0.00 0.00 0.00 0.00 0.00 0.00 0.00 0.00 0.00 0.00 0.00 0.00 0.00
0.04 0.00 0.01 0.03 0.09 0.10 0.13 0.11 0.10 0.08 0.04 0.03 0.03 0.01 0.01 0.01 0.01 0.00 0.00 0.00 0.00 0.00 0.00 0.00 0.00 0.00 0.00 0.00 0.00 0.00 0.00 0.00 0.00 0.00 0.00 0.00 0.00 0.00 0.00 0.00 0.00 0.00 0.00
0.06 0.01 0.00 0.02 0.08 0.05 0.13 0.15 0.13 0.10 0.04 0.02 0.01 0.01 0.02 0.01 0.01 0.00 0.00 0.00 0.00 0.00 0.00 0.00 0.00 0.00 0.00 0.00 0.00 0.00 0.00 0.00 0.00 0.00 0.00 0.00 0.00 0.00 0.00 0.00 0.00 0.00 0.00
MSLP
1008.59 1009.70 1010.94 1011.39 1011.94 1012.31 1012.66 1012.94 1013.33 1013.70 1013.95 1014.18 1014.47 1014.75 1014.93 1015.27 1015.38 1015.57 1015.71 1015.95 1016.08 1016.15 1016.20 1016.48 1016.69 1016.90 1017.16 1017.31 1017.55 1017.69 1017.87 1017.92 1018.16 1018.32 1018.38 1018.51 1018.42 1018.41 1018.49 1018.33 1018.46 1018.74 1018.97
1008.31 1009.78 1010.90 1011.47 1011.94 1012.40 1012.83 1013.08 1013.53 1013.93 1014.16 1014.40 1014.73 1014.98 1015.13 1015.47 1015.63 1015.87 1016.04 1016.29 1016.42 1016.49 1016.75 1016.90 1017.11 1017.36 1017.60 1017.86 1018.08 1018.23 1018.43 1018.51 1018.67 1018.74 1018.94 1019.04 1019.08 1019.09 1019.25 1019.11 1019.08 1019.38 1019.42
1008.27 1009.62 1010.84 1011.54 1011.99 1012.51 1012.96 1013.29 1013.72 1014.09 1014.30 1014.64 1014.97 1015.20 1015.43 1015.75 1015.92 1016.17 1016.42 1016.59 1016.79 1016.91 1017.16 1017.38 1017.63 1017.83 1018.14 1018.30 1018.49 1018.71 1018.85 1018.90 1018.97 1018.91 1018.94 1019.25 1019.66 1019.66 1019.72 1019.78 1019.80 1019.82 1019.96
1008.23 1009.53 1010.52 1011.57 1012.01 1012.60 1013.07 1013.54 1013.92 1014.23 1014.45 1014.82 1015.19 1015.48 1015.70 1016.03 1016.26 1016.57 1016.84 1016.98 1017.23 1017.40 1017.67 1017.96 1018.17 1018.47 1018.71 1018.84 1019.01 1019.11 1019.15 1019.20 1019.25 1019.13 1019.21 1019.54 1019.90 1020.19 1020.21 1020.19 1020.31 1020.43 1020.59
1008.37 1009.40 1010.55 1011.54 1012.10 1012.62 1013.10 1013.58 1014.03 1014.31 1014.64 1014.98 1015.38 1015.69 1016.01 1016.23 1016.49 1016.81 1017.10 1017.58 1017.78 1018.00 1018.24 1018.52 1018.71 1019.01 1019.20 1019.38 1019.57 1019.62 1019.50 1019.45 1019.55 1019.51 1019.80 1019.94 1020.22 1020.71 1020.65 1020.67 1020.78 1020.91 1021.09
1008.54 1009.43 1011.04 1011.62 1012.11 1012.64 1013.24 1013.70 1014.09 1014.40 1014.83 1015.19 1015.59 1015.90 1016.24 1016.56 1016.87 1017.10 1017.49 1017.90 1018.26 1018.52 1018.71 1019.07 1019.34 1019.58 1019.80 1019.95 1020.13 1020.10 1019.95 1019.66 1019.41 1019.77 1020.26 1020.68 1020.83 1021.18 1021.24 1021.28 1021.31 1021.50 1021.63
1008.61 1009.70 1011.06 1011.83 1012.23 1012.69 1013.29 1013.79 1014.19 1014.63 1015.05 1015.38 1015.82 1016.18 1016.52 1016.84 1017.30 1017.66 1017.94 1018.39 1018.71 1018.97 1019.26 1019.57 1019.89 1020.12 1020.40 1020.61 1020.70 1020.66 1020.51 1020.08 1019.71 1020.20 1020.72 1021.12 1021.50 1021.62 1021.71 1021.83 1021.92 1021.95 1022.12
1009.04 1010.22 1011.07 1012.06 1012.47 1012.90 1013.36 1013.84 1014.35 1014.87 1015.33 1015.65 1015.97 1016.37 1016.73 1017.13 1017.57 1018.07 1018.45 1018.79 1019.05 1019.44 1019.77 1020.02 1020.30 1020.66 1021.01 1021.17 1021.22 1021.07 1020.81 1020.72 1020.64 1021.19 1021.60 1021.79 1022.03 1022.12 1022.20 1022.32 1022.52 1022.56 1022.58
1009.82 1010.65 1011.10 1011.98 1012.62 1013.17 1013.64 1014.13 1014.63 1015.17 1015.55 1015.85 1016.27 1016.54 1016.84 1017.32 1017.83 1018.41 1018.89 1019.33 1019.57 1019.82 1020.26 1020.50 1020.90 1021.27 1021.57 1021.71 1021.70 1021.55 1021.47 1021.34 1021.45 1022.02 1022.25 1022.32 1022.47 1022.49 1022.63 1022.80 1022.95 1023.06 1023.14
1010.34 1010.77 1011.19 1011.69 1012.42 1013.04 1013.78 1014.36 1014.98 1015.47 1015.86 1016.22 1016.64 1017.07 1017.42 1017.87 1018.38 1018.79 1019.32 1019.73 1020.13 1020.43 1020.84 1021.16 1021.55 1021.83 1022.13 1022.32 1022.40 1022.25 1022.11 1022.24 1022.21 1022.47 1022.81 1022.94 1022.86 1022.93 1023.06 1023.26 1023.34 1023.46 1023.61
1010.63 1010.84 1011.17 1011.53 1012.03 1012.73 1013.59 1014.62 1015.28 1015.86 1016.27 1016.67 1017.05 1017.38 1017.69 1018.10 1018.69 1019.06 1020.01 1020.40 1020.72 1021.18 1021.69 1022.01 1022.24 1022.49 1022.85 1023.04 1023.18 1023.29 1023.15 1023.43 1023.50 1023.55 1023.69 1023.50 1023.38 1023.46 1023.51 1023.83 1023.96 1024.04 1024.04
1010.31 1010.72 1011.07 1011.48 1011.89 1012.59 1013.52 1014.57 1015.17 1016.03 1016.34 1016.83 1017.30 1017.48 1017.70 1018.44 1019.25 1019.96 1020.63 1021.10 1021.51 1021.91 1022.19 1022.46 1022.60 1022.65 1022.79 1023.44 1023.69 1024.07 1024.17 1024.05 1024.41 1024.72 1024.76 1024.05 1023.78 1023.98 1024.04 1024.27 1024.41 1024.65 1024.78
1009.40 1010.42 1010.92 1011.25 1011.58 1012.39 1013.32 1014.14 1015.19 1015.80 1016.39 1017.02 1017.52 1018.10 1018.68 1019.30 1020.01 1020.62 1021.21 1021.69 1021.89 1022.10 1022.29 1022.43 1022.78 1023.03 1023.14 1023.54 1024.10 1024.76 1025.04 1024.92 1024.97 1025.31 1025.35 1024.53 1024.53 1024.55 1024.45 1024.46 1024.77 1025.17 1025.22
1009.01 1009.81 1010.41 1011.10 1011.66 1012.46 1013.08 1013.93 1014.87 1015.68 1016.38 1017.23 1017.90 1018.32 1018.71 1019.41 1020.17 1020.54 1021.14 1021.34 1021.62 1021.81 1022.03 1022.56 1023.32 1024.06 1024.26 1024.46 1024.64 1025.27 1025.49 1025.62 1025.88 1026.15 1025.98 1025.52 1025.40 1025.10 1024.94 1024.96 1025.25 1025.43 1025.60
1008.50 1009.68 1010.50 1010.96 1011.75 1012.58 1013.21 1013.77 1014.90 1015.90 1016.59 1017.47 1017.93 1018.48 1018.82 1019.15 1019.88 1020.74 1021.47 1021.55 1021.84 1022.27 1022.40 1023.26 1024.00 1024.54 1024.85 1025.15 1025.46 1025.82 1025.80 1025.90 1026.39 1026.78 1026.70 1026.19 1026.17 1026.02 1025.63 1025.52 1025.57 1025.58 1025.92
1008.39 1009.45 1010.36 1010.97 1011.82 1012.47 1013.36 1014.09 1014.96 1015.96 1016.85 1017.51 1018.08 1018.48 1018.61 1018.97 1020.03 1020.93 1021.62 1021.61 1022.12 1022.43 1022.84 1023.74 1024.61 1024.98 1025.21 1025.66 1026.19 1026.69 1027.12 1027.36 1027.42 1027.37 1026.91 1027.03 1026.83 1026.55 1026.06 1025.85 1025.90 1026.09 1026.35
1008.10 1009.08 1009.95 1010.93 1011.85 1012.73 1013.46 1014.22 1015.04 1016.02 1016.78 1017.58 1018.09 1018.35 1018.89 1019.39 1020.16 1020.85 1021.27 1021.80 1022.34 1022.98 1023.52 1024.37 1024.80 1025.17 1025.46 1026.12 1027.21 1027.87 1027.80 1027.78 1027.93 1027.93 1027.80 1027.62 1027.53 1027.18 1026.31 1026.03 1026.17 1026.47 1026.74
1007.96 1008.94 1009.94 1010.96 1011.84 1012.81 1013.53 1014.40 1015.17 1015.87 1016.82 1017.54 1018.11 1018.50 1019.23 1019.63 1020.29 1020.73 1021.33 1021.98 1022.83 1023.60 1024.00 1024.39 1024.79 1025.60 1026.04 1026.71 1027.78 1028.19 1028.57 1028.51 1028.56 1028.57 1028.66 1028.57 1028.49 1028.12 1027.22 1026.69 1027.01 1027.12 1027.28
1007.88 1008.72 1009.86 1010.68 1011.47 1012.58 1013.52 1014.41 1015.20 1016.07 1017.00 1017.62 1018.21 1018.62 1019.26 1019.75 1020.38 1020.86 1021.52 1022.43 1023.14 1023.52 1023.78 1024.18 1024.79 1025.48 1026.29 1027.37 1028.37 1029.08 1029.51 1029.50 1029.36 1029.66 1029.46 1029.34 1029.30 1028.81 1028.33 1028.16 1027.69 1028.15 1028.20
1007.56 1008.68 1009.66 1010.38 1011.28 1012.37 1013.51 1014.56 1015.65 1016.49 1017.31 1017.81 1018.12 1018.74 1019.44 1019.73 1020.45 1020.90 1021.78 1022.56 1022.88 1023.14 1023.78 1024.31 1024.91 1025.59 1026.50 1027.62 1028.75 1029.71 1030.40 1030.40 1030.28 1030.44 1030.56 1030.41 1030.07 1029.61 1029.48 1029.39 1029.46 1029.51 1029.44
1007.51 1008.38 1009.36 1010.34 1011.36 1012.11 1013.31 1014.42 1015.70 1016.39 1017.34 1018.06 1018.34 1018.89 1019.26 1019.74 1020.39 1021.01 1021.80 1022.42 1022.90 1023.30 1023.86 1024.43 1025.18 1025.87 1026.95 1028.06 1028.36 1030.03 1030.99 1031.24 1031.01 1031.12 1031.35 1031.39 1031.37 1031.21 1031.08 1030.71 1030.76 1030.81 1030.76
1007.30 1008.50 1009.51 1010.32 1011.05 1011.94 1012.65 1013.84 1015.08 1016.19 1017.22 1017.89 1018.50 1019.09 1019.12 1019.74 1020.32 1020.95 1021.69 1022.28 1022.74 1023.37 1023.99 1024.72 1025.35 1026.09 1026.94 1027.26 1027.62 1028.81 1030.45 1031.48 1031.67 1031.88 1031.98 1032.20 1032.49 1032.42 1032.23 1032.24 1032.05 1031.79 1031.66
1007.12 1008.38 1009.18 1010.06 1010.90 1011.94 1012.86 1013.60 1015.16 1016.33 1017.53 1018.38 1018.84 1019.31 1019.40 1019.77 1020.40 1020.91 1021.54 1022.09 1022.64 1023.19 1023.96 1024.69 1025.33 1025.85 1026.46 1027.25 1027.18 1027.44 1028.83 1029.87 1031.44 1032.26 1032.40 1032.67 1032.89 1032.92 1033.28 1033.16 1032.96 1032.72 1032.53
1007.10 1008.37 1009.14 1010.03 1010.96 1012.04 1012.79 1013.25 1014.06 1015.28 1016.59 1017.65 1018.27 1018.92 1019.51 1019.69 1020.41 1020.87 1021.42 1022.02 1022.61 1023.20 1023.97 1024.58 1025.05 1025.52 1026.15 1026.74 1027.36 1027.73 1027.55 1027.65 1029.37 1031.65 1032.38 1032.88 1033.26 1033.60 1033.82 1033.90 1033.83 1033.64 1033.50
1007.14 1008.11 1009.09 1009.99 1010.74 1011.56 1012.54 1013.10 1013.47 1014.83 1015.95 1017.04 1018.24 1019.02 1019.54 1019.77 1020.32 1020.88 1021.31 1021.81 1022.48 1023.02 1023.64 1024.22 1024.85 1025.27 1025.86 1026.52 1026.90 1027.53 1027.79 1027.74 1028.06 1029.37 1031.44 1032.72 1033.27 1033.85 1034.23 1034.43 1034.53 1034.50 1034.34
1007.15 1008.17 1008.93 1009.72 1010.55 1011.36 1012.31 1013.07 1012.96 1014.10 1015.37 1016.61 1017.95 1018.82 1019.46 1019.88 1020.16 1020.69 1021.18 1021.76 1022.31 1022.81 1023.29 1023.99 1024.60 1025.15 1025.56 1026.09 1026.64 1026.91 1027.11 1027.38 1028.03 1028.66 1030.17 1032.07 1032.85 1033.83 1034.18 1034.51 1034.78 1034.87 1034.78
Thickness
5745 5741 5732 5729 5726 5726 5726 5727 5726 5727 5728 5728 5728 5728 5728 5727 5728 5728 5729 5728 5728 5729 5731 5730 5729 5729 5727 5728 5727 5727 5726 5727 5726 5726 5726 5725 5727 5728 5727 5730 5728 5726 5725
5747 5737 5730 5725 5723 5722 5721 5723 5722 5722 5723 5724 5723 5724 5726 5725 5725 5725 5725 5725 5725 5726 5726 5727 5726 5725 5725 5724 5723 5724 5723 5723 5723 5723 5722 5722 5723 5724 5722 5725 5725 5722 5722
5743 5735 5727 5723 5719 5718 5717 5718 5718 5718 5719 5719 5719 5721 5721 5721 5722 5721 5721 5722 5722 5723 5722 5722 5722 5722 5721 5721 5721 5720 5720 5721 5721 5722 5722 5720 5717 5718 5719 5719 5720 5720 5718
5740 5731 5726 5719 5718 5715 5714 5714 5714 5715 5716 5716 5716 5716 5717 5717 5717 5717 5717 5717 5717 5718 5717 5717 5717 5716 5716 5716 5716 5717 5718 5718 5719 5720 5720 5718 5716 5714 5715 5716 5715 5715 5713
5735 5728 5721 5716 5714 5713 5713 5712 5711 5711 5712 5713 5712 5713 5713 5713 5714 5714 5713 5711 5712 5713 5712 5711 5712 5711 5711 5711 5711 5712 5714 5715 5715 5716 5715 5714 5714 5710 5712 5712 5711 5711 5709
5729 5723 5714 5713 5712 5711 5709 5708 5708 5709 5708 5708 5709 5709 5709 5708 5708 5710 5710 5708 5707 5706 5707 5705 5705 5705 5704 5705 5705 5706 5709 5713 5716 5713 5710 5708 5708 5706 5707 5707 5707 5705 5704
5723 5718 5710 5708 5708 5708 5706 5705 5705 5704 5704 5705 5704 5704 5705 5705 5703 5703 5704 5702 5701 5701 5700 5699 5699 5699 5698 5698 5700 5701 5704 5708 5710 5708 5705 5703 5702 5701 5702 5701 5701 5701 5699
5715 5710 5706 5703 5703 5703 5703 5701 5700 5699 5699 5700 5702 5701 5701 5701 5700 5698 5697 5696 5696 5695 5694 5694 5694 5693 5692 5692 5694 5696 5699 5700 5702 5699 5697 5697 5696 5696 5696 5695 5694 5694 5695
5704 5702 5702 5698 5698 5697 5696 5695 5695 5694 5695 5697 5697 5698 5699 5697 5695 5692 5691 5689 5690 5690 5688 5689 5687 5687 5686 5686 5688 5690 5691 5694 5694 5690 5690 5691 5691 5692 5691 5690 5689 5688 5689
5697 5698 5698 5697 5695 5694 5692 5692 5690 5690 5691 5692 5692 5692 5692 5691 5689 5688 5685 5685 5683 5683 5682 5682 5681 5681 5680 5680 5681 5683 5685 5685 5686 5684 5683 5684 5686 5686 5686 5684 5683 5683 5683
5690 5694 5695 5695 5694 5693 5690 5687 5686 5686 5686 5687 5687 5688 5687 5685 5683 5683 5679 5679 5678 5676 5674 5673 5674 5675 5673 5674 5674 5674 5676 5674 5675 5674 5675 5677 5678 5678 5679 5677 5675 5676 5675
5686 5690 5694 5694 5692 5691 5688 5684 5683 5680 5682 5681 5680 5681 5683 5681 5677 5676 5673 5671 5669 5668 5668 5667 5667 5669 5669 5667 5668 5666 5666 5666 5664 5665 5666 5672 5672 5671 5671 5669 5669 5668 5667
5694 5689 5690 5692 5691 5689 5686 5684 5680 5679 5679 5677 5676 5676 5673 5673 5670 5668 5666 5663 5663 5663 5663 5663 5662 5662 5662 5662 5660 5657 5657 5659 5657 5655 5659 5666 5665 5665 5666 5664 5663 5661 5661
5688 5688 5689 5688 5687 5684 5683 5682 5678 5677 5675 5673 5671 5671 5670 5669 5666 5665 5662 5662 5661 5662 5661 5659 5655 5652 5653 5652 5651 5648 5649 5650 5649 5648 5651 5656 5657 5657 5659 5659 5658 5657 5655
5687 5683 5682 5684 5683 5679 5680 5679 5676 5672 5670 5667 5668 5666 5666 5668 5665 5661 5657 5658 5658 5657 5657 5652 5649 5646 5646 5644 5644 5643 5643 5643 5641 5641 5643 5647 5649 5649 5652 5655 5653 5652 5649
5682 5678 5678 5680 5678 5677 5675 5674 5672 5667 5664 5664 5662 5662 5663 5665 5661 5658 5654 5656 5654 5653 5653 5648 5644 5642 5642 5640 5637 5635 5633 5631 5632 5635 5640 5639 5639 5642 5646 5650 5649 5647 5645
5680 5679 5677 5676 5674 5672 5670 5667 5666 5663 5660 5660 5659 5661 5659 5658 5657 5656 5655 5653 5651 5648 5647 5643 5641 5640 5638 5635 5628 5627 5627 5628 5628 5629 5631 5632 5634 5636 5642 5646 5645 5642 5640
5674 5672 5672 5669 5667 5665 5664 5661 5660 5658 5656 5656 5656 5656 5654 5654 5653 5653 5652 5650 5645 5642 5642 5641 5639 5635 5633 5629 5623 5623 5621 5623 5621 5622 5624 5625 5625 5627 5635 5639 5637 5636 5634
5667 5668 5665 5667 5665 5661 5658 5655 5653 5651 5650 5650 5650 5650 5651 5651 5650 5649 5647 5644 5641 5641 5641 5639 5637 5634 5631 5624 5618 5616 5614 5615 5615 5613 5617 5620 5620 5624 5630 5629 5631 5625 5625
5663 5662 5661 5664 5662 5657 5652 5649 5644 5643 5642 5644 5645 5645 5645 5648 5645 5646 5643 5640 5640 5641 5639 5637 5634 5631 5626 5621 5614 5609 5605 5605 5607 5607 5607 5610 5614 5619 5619 5620 5618 5616 5618
5655 5655 5655 5655 5652 5653 5647 5643 5639 5640 5639 5637 5638 5639 5642 5642 5641 5640 5638 5637 5636 5636 5635 5633 5629 5626 5620 5614 5615 5603 5597 5597 5599 5599 5599 5601 5602 5603 5605 5609 5607 5606 5606
5646 5645 5645 5647 5648 5649 5650 5645 5640 5637 5634 5634 5634 5633 5638 5637 5637 5636 5635 5633 5633 5632 5630 5626 5624 5621 5617 5618 5618 5612 5599 5593 5591 5591 5591 5590 5589 5592 5596 5595 5596 5597 5597
5636 5635 5640 5642 5643 5643 5640 5639 5632 5628 5624 5624 5626 5628 5631 5631 5631 5631 5630 5629 5629 5628 5625 5622 5620 5619 5616 5613 5618 5620 5609 5605 5587 5584 5584 5584 5584 5585 5583 5585 5587 5587 5586
5626 5627 5631 5634 5637 5634 5633 5637 5638 5635 5630 5627 5628 5627 5625 5627 5626 5626 5625 5624 5623 5622 5620 5618 5617 5617 5614 5612 5610 5609 5614 5615 5605 5584 5580 5578 5575 5574 5574 5574 5575 5576 5575
5618 5620 5623 5626 5630 5631 5629 5632 5635 5630 5628 5625 5620 5618 5618 5620 5619 5619 5620 5620 5619 5618 5616 5615 5613 5612 5612 5609 5609 5605 5605 5608 5609 5599 5581 5573 5570 5566 5564 5564 5563 5564 5564
5608 5610 5614 5619 5622 5625 5623 5622 5631 5629 5624 5621 5615 5613 5612 5613 5615 5614 5614 5614 5613 5614 5613 5611 5608 5607 5609 5608 5605 5605 5604 5604 5600 5598 5588 5571 5568 5560 5557 5556 5555 5554 5554